owner,sensor,date,latitude,longitude,air_temperature,qcFlag 
LUMCON,ioos:station:LUMCON:102:1,2010-02-01T15:00:00Z,29.1870,-90.6093,8.8,11111222 
LUMCON,ioos:station:LUMCON:102:1,2010-02-01T16:00:00Z,29.1870,-90.6093,9.7,11111222 
LUMCON,ioos:station:LUMCON:102:1,2010-02-01T17:00:00Z,29.1870,-90.6093,10.4,11111222 
LUMCON,ioos:station:LUMCON:102:1,2010-02-01T18:00:00Z,29.1870,-90.6093,11.1,11111222 
LUMCON,ioos:station:LUMCON:102:1,2010-02-01T19:00:00Z,29.1870,-90.6093,11.9,11111222 
LUMCON,ioos:station:LUMCON:102:1,2010-02-01T20:00:00Z,29.1870,-90.6093,11.5,11111222 
LUMCON,ioos:station:LUMCON:102:1,2010-02-01T21:00:00Z,29.1870,-90.6093,11.0,11111222 
LUMCON,ioos:station:LUMCON:102:1,2010-02-01T22:00:00Z,29.1870,-90.6093,11.0,11111222 
LUMCON,ioos:station:LUMCON:102:1,2010-02-01T23:00:00Z,29.1870,-90.6093,10.8,11111222 
LUMCON,ioos:station:LUMCON:102:1,2010-02-02T00:00:00Z,29.1870,-90.6093,10.7,11111222 
LUMCON,ioos:station:LUMCON:102:1,2010-02-02T01:00:00Z,29.1870,-90.6093,10.5,11111222 
LUMCON,ioos:station:LUMCON:102:1,2010-02-02T02:00:00Z,29.1870,-90.6093,10.3,11111222 
LUMCON,ioos:station:LUMCON:102:1,2010-02-02T03:00:00Z,29.1870,-90.6093,10.2,11111222 
LUMCON,ioos:station:LUMCON:102:1,2010-02-02T04:00:00Z,29.1870,-90.6093,10.2,11111222 
LUMCON,ioos:station:LUMCON:102:1,2010-02-02T05:00:00Z,29.1870,-90.6093,10.4,11111222 
LUMCON,ioos:station:LUMCON:102:1,2010-02-02T06:00:00Z,29.1870,-90.6093,10.6,11111222 
LUMCON,ioos:station:LUMCON:102:1,2010-02-02T07:00:00Z,29.1870,-90.6093,10.8,11111222 
LUMCON,ioos:station:LUMCON:102:1,2010-02-02T08:00:00Z,29.1870,-90.6093,10.6,11111222 
LUMCON,ioos:station:LUMCON:102:1,2010-02-02T09:00:00Z,29.1870,-90.6093,10.5,11111222 
LUMCON,ioos:station:LUMCON:102:1,2010-02-02T10:00:00Z,29.1870,-90.6093,10.3,11111222 
LUMCON,ioos:station:LUMCON:102:1,2010-02-02T11:00:00Z,29.1870,-90.6093,10.3,11111222 
LUMCON,ioos:station:LUMCON:102:1,2010-02-02T12:00:00Z,29.1870,-90.6093,9.8,11111222 
LUMCON,ioos:station:LUMCON:102:1,2010-02-02T13:00:00Z,29.1870,-90.6093,9.3,11111222 
LUMCON,ioos:station:LUMCON:102:1,2010-02-02T14:00:00Z,29.1870,-90.6093,9.9,11111222 
LUMCON,ioos:station:LUMCON:102:1,2010-02-02T15:00:00Z,29.1870,-90.6093,11.0,11111222 
LUMCON,ioos:station:LUMCON:102:1,2010-02-02T16:00:00Z,29.1870,-90.6093,12.2,11111222 
LUMCON,ioos:station:LUMCON:102:1,2010-02-02T17:00:00Z,29.1870,-90.6093,13.5,11111222 
LUMCON,ioos:station:LUMCON:102:1,2010-02-02T18:00:00Z,29.1870,-90.6093,14.4,11111222 
LUMCON,ioos:station:LUMCON:102:1,2010-02-02T19:00:00Z,29.1870,-90.6093,14.8,11111222 
LUMCON,ioos:station:LUMCON:102:1,2010-02-02T20:00:00Z,29.1870,-90.6093,15.5,11111222 
LUMCON,ioos:station:LUMCON:102:1,2010-02-02T21:00:00Z,29.1870,-90.6093,15.9,11111222 
LUMCON,ioos:station:LUMCON:102:1,2010-02-02T22:00:00Z,29.1870,-90.6093,15.8,11111222 
LUMCON,ioos:station:LUMCON:102:1,2010-02-02T23:00:00Z,29.1870,-90.6093,15.4,11111222 
LUMCON,ioos:station:LUMCON:102:1,2010-02-03T00:00:00Z,29.1870,-90.6093,14.1,11111222 
LUMCON,ioos:station:LUMCON:102:1,2010-02-03T01:00:00Z,29.1870,-90.6093,13.2,11111222 
LUMCON,ioos:station:LUMCON:102:1,2010-02-03T02:00:00Z,29.1870,-90.6093,13.1,11111222 
LUMCON,ioos:station:LUMCON:102:1,2010-02-03T03:00:00Z,29.1870,-90.6093,13.1,11111222 
LUMCON,ioos:station:LUMCON:102:1,2010-02-03T04:00:00Z,29.1870,-90.6093,13.2,11111222 
LUMCON,ioos:station:LUMCON:102:1,2010-02-03T05:00:00Z,29.1870,-90.6093,12.6,11111222 
LUMCON,ioos:station:LUMCON:102:1,2010-02-03T06:00:00Z,29.1870,-90.6093,12.1,11111222 
LUMCON,ioos:station:LUMCON:102:1,2010-02-03T07:00:00Z,29.1870,-90.6093,11.5,11111222 
LUMCON,ioos:station:LUMCON:102:1,2010-02-03T08:00:00Z,29.1870,-90.6093,11.3,11111222 
LUMCON,ioos:station:LUMCON:102:1,2010-02-03T09:00:00Z,29.1870,-90.6093,10.7,11111222 
LUMCON,ioos:station:LUMCON:102:1,2010-02-03T10:00:00Z,29.1870,-90.6093,10.4,11111222 
LUMCON,ioos:station:LUMCON:102:1,2010-02-03T11:00:00Z,29.1870,-90.6093,10.2,11111222 
LUMCON,ioos:station:LUMCON:102:1,2010-02-03T12:00:00Z,29.1870,-90.6093,10.1,11111222 
LUMCON,ioos:station:LUMCON:102:1,2010-02-03T13:00:00Z,29.1870,-90.6093,9.8,11111222 
LUMCON,ioos:station:LUMCON:102:1,2010-02-03T14:00:00Z,29.1870,-90.6093,9.7,11111222 
LUMCON,ioos:station:LUMCON:102:1,2010-02-03T15:00:00Z,29.1870,-90.6093,10.0,11111222 
LUMCON,ioos:station:LUMCON:102:1,2010-02-03T16:00:00Z,29.1870,-90.6093,10.5,11111222 
LUMCON,ioos:station:LUMCON:102:1,2010-02-03T17:00:00Z,29.1870,-90.6093,10.9,11111222 
LUMCON,ioos:station:LUMCON:102:1,2010-02-03T18:00:00Z,29.1870,-90.6093,11.7,11111222 
LUMCON,ioos:station:LUMCON:102:1,2010-02-03T19:00:00Z,29.1870,-90.6093,11.9,11111222 
LUMCON,ioos:station:LUMCON:102:1,2010-02-03T20:00:00Z,29.1870,-90.6093,11.8,11111222 
LUMCON,ioos:station:LUMCON:102:1,2010-02-03T21:00:00Z,29.1870,-90.6093,11.8,11111222 
LUMCON,ioos:station:LUMCON:102:1,2010-02-03T22:00:00Z,29.1870,-90.6093,11.6,11111222 
LUMCON,ioos:station:LUMCON:102:1,2010-02-03T23:00:00Z,29.1870,-90.6093,11.8,11111222 
LUMCON,ioos:station:LUMCON:102:1,2010-02-04T00:00:00Z,29.1870,-90.6093,11.8,11111222 
LUMCON,ioos:station:LUMCON:102:1,2010-02-04T02:00:00Z,29.1870,-90.6093,11.5,11111222 
LUMCON,ioos:station:LUMCON:102:1,2010-02-04T03:00:00Z,29.1870,-90.6093,11.1,11111222 
LUMCON,ioos:station:LUMCON:102:1,2010-02-04T04:00:00Z,29.1870,-90.6093,11.0,11111222 
LUMCON,ioos:station:LUMCON:102:1,2010-02-04T05:00:00Z,29.1870,-90.6093,11.2,11111222 
LUMCON,ioos:station:LUMCON:102:1,2010-02-04T06:00:00Z,29.1870,-90.6093,11.7,11111222 
LUMCON,ioos:station:LUMCON:102:1,2010-02-04T07:00:00Z,29.1870,-90.6093,11.6,11111222 
LUMCON,ioos:station:LUMCON:102:1,2010-02-04T08:00:00Z,29.1870,-90.6093,11.6,11111222 
LUMCON,ioos:station:LUMCON:102:1,2010-02-04T09:00:00Z,29.1870,-90.6093,11.4,11111222 
LUMCON,ioos:station:LUMCON:102:1,2010-02-04T10:00:00Z,29.1870,-90.6093,11.4,11111222 
LUMCON,ioos:station:LUMCON:102:1,2010-02-04T11:00:00Z,29.1870,-90.6093,11.4,11111222 
LUMCON,ioos:station:LUMCON:102:1,2010-02-04T12:00:00Z,29.1870,-90.6093,11.5,11111222 
LUMCON,ioos:station:LUMCON:102:1,2010-02-04T13:00:00Z,29.1870,-90.6093,11.8,11111222 
LUMCON,ioos:station:LUMCON:102:1,2010-02-04T14:00:00Z,29.1870,-90.6093,11.2,11111222 
LUMCON,ioos:station:LUMCON:102:1,2010-02-04T15:00:00Z,29.1870,-90.6093,10.6,11111222 
LUMCON,ioos:station:LUMCON:102:1,2010-02-04T16:00:00Z,29.1870,-90.6093,10.0,11111222 
LUMCON,ioos:station:LUMCON:102:1,2010-02-04T17:00:00Z,29.1870,-90.6093,10.0,11111222 
LUMCON,ioos:station:LUMCON:102:1,2010-02-04T18:00:00Z,29.1870,-90.6093,10.2,11111222 
LUMCON,ioos:station:LUMCON:102:1,2010-02-04T19:00:00Z,29.1870,-90.6093,10.8,11111222 
LUMCON,ioos:station:LUMCON:102:1,2010-02-04T20:00:00Z,29.1870,-90.6093,11.3,11111222 
LUMCON,ioos:station:LUMCON:102:1,2010-02-04T21:00:00Z,29.1870,-90.6093,11.8,11111222 
LUMCON,ioos:station:LUMCON:102:1,2010-02-04T22:00:00Z,29.1870,-90.6093,12.6,11111222 
LUMCON,ioos:station:LUMCON:102:1,2010-02-04T23:00:00Z,29.1870,-90.6093,12.5,11111222 
LUMCON,ioos:station:LUMCON:102:1,2010-02-05T00:00:00Z,29.1870,-90.6093,12.5,11111222 
LUMCON,ioos:station:LUMCON:102:1,2010-02-05T01:00:00Z,29.1870,-90.6093,12.4,11111222 
LUMCON,ioos:station:LUMCON:102:1,2010-02-05T02:00:00Z,29.1870,-90.6093,12.4,11111222 
LUMCON,ioos:station:LUMCON:102:1,2010-02-05T03:00:00Z,29.1870,-90.6093,12.3,11111222 
LUMCON,ioos:station:LUMCON:102:1,2010-02-05T04:00:00Z,29.1870,-90.6093,11.9,11111222 
LUMCON,ioos:station:LUMCON:102:1,2010-02-05T05:00:00Z,29.1870,-90.6093,11.6,11111222 
LUMCON,ioos:station:LUMCON:102:1,2010-02-05T06:00:00Z,29.1870,-90.6093,11.4,11111222 
LUMCON,ioos:station:LUMCON:102:1,2010-02-05T07:00:00Z,29.1870,-90.6093,11.2,11111222 
LUMCON,ioos:station:LUMCON:102:1,2010-02-05T08:00:00Z,29.1870,-90.6093,11.2,11111222 
LUMCON,ioos:station:LUMCON:102:1,2010-02-05T09:00:00Z,29.1870,-90.6093,10.8,11111222 
LUMCON,ioos:station:LUMCON:102:1,2010-02-05T10:00:00Z,29.1870,-90.6093,10.7,11111222 
LUMCON,ioos:station:LUMCON:102:1,2010-02-05T11:00:00Z,29.1870,-90.6093,10.6,11111222 
LUMCON,ioos:station:LUMCON:102:1,2010-02-05T12:00:00Z,29.1870,-90.6093,10.4,11111222 
LUMCON,ioos:station:LUMCON:102:1,2010-02-05T13:00:00Z,29.1870,-90.6093,10.3,11111222 
LUMCON,ioos:station:LUMCON:102:1,2010-02-05T14:00:00Z,29.1870,-90.6093,10.0,11111222 
LUMCON,ioos:station:LUMCON:102:1,2010-02-05T15:00:00Z,29.1870,-90.6093,10.7,11111222 
LUMCON,ioos:station:LUMCON:102:1,2010-02-05T16:00:00Z,29.1870,-90.6093,10.7,11111222 
LUMCON,ioos:station:LUMCON:102:1,2010-02-05T17:00:00Z,29.1870,-90.6093,11.0,11111222 
LUMCON,ioos:station:LUMCON:102:1,2010-02-05T18:00:00Z,29.1870,-90.6093,11.4,11111222 
LUMCON,ioos:station:LUMCON:102:1,2010-02-05T19:00:00Z,29.1870,-90.6093,11.8,11111222 
LUMCON,ioos:station:LUMCON:102:1,2010-02-05T20:00:00Z,29.1870,-90.6093,11.9,11111222 
LUMCON,ioos:station:LUMCON:102:1,2010-02-05T21:00:00Z,29.1870,-90.6093,10.9,11111222 
LUMCON,ioos:station:LUMCON:102:1,2010-02-05T22:00:00Z,29.1870,-90.6093,10.5,11111222 
LUMCON,ioos:station:LUMCON:102:1,2010-02-05T23:00:00Z,29.1870,-90.6093,10.8,11111222 
LUMCON,ioos:station:LUMCON:102:1,2010-02-06T00:00:00Z,29.1870,-90.6093,10.5,11111222 
LUMCON,ioos:station:LUMCON:102:1,2010-02-06T01:00:00Z,29.1870,-90.6093,10.5,11111222 
LUMCON,ioos:station:LUMCON:102:1,2010-02-06T02:00:00Z,29.1870,-90.6093,10.7,11111222 
LUMCON,ioos:station:LUMCON:102:1,2010-02-06T03:00:00Z,29.1870,-90.6093,10.7,11111222 
LUMCON,ioos:station:LUMCON:102:1,2010-02-06T04:00:00Z,29.1870,-90.6093,10.8,11111222 
LUMCON,ioos:station:LUMCON:102:1,2010-02-06T05:00:00Z,29.1870,-90.6093,10.5,11111222 
LUMCON,ioos:station:LUMCON:102:1,2010-02-06T06:00:00Z,29.1870,-90.6093,9.8,11111222 
LUMCON,ioos:station:LUMCON:102:1,2010-02-06T07:00:00Z,29.1870,-90.6093,9.1,11111222 
LUMCON,ioos:station:LUMCON:102:1,2010-02-06T08:00:00Z,29.1870,-90.6093,8.6,11111222 
LUMCON,ioos:station:LUMCON:102:1,2010-02-06T09:00:00Z,29.1870,-90.6093,8.5,11111222 
LUMCON,ioos:station:LUMCON:102:1,2010-02-06T10:00:00Z,29.1870,-90.6093,8.4,11111222 
LUMCON,ioos:station:LUMCON:102:1,2010-02-06T11:00:00Z,29.1870,-90.6093,8.5,11111222 
LUMCON,ioos:station:LUMCON:102:1,2010-02-06T12:00:00Z,29.1870,-90.6093,8.9,11111222 
LUMCON,ioos:station:LUMCON:102:1,2010-02-06T13:00:00Z,29.1870,-90.6093,9.0,11111222 
LUMCON,ioos:station:LUMCON:102:1,2010-02-06T14:00:00Z,29.1870,-90.6093,8.9,11111222 
LUMCON,ioos:station:LUMCON:102:1,2010-02-06T15:00:00Z,29.1870,-90.6093,9.3,11111222 
LUMCON,ioos:station:LUMCON:102:1,2010-02-06T16:00:00Z,29.1870,-90.6093,9.9,11111222 
LUMCON,ioos:station:LUMCON:102:1,2010-02-06T17:00:00Z,29.1870,-90.6093,10.3,11111222 
LUMCON,ioos:station:LUMCON:102:1,2010-02-06T18:00:00Z,29.1870,-90.6093,11.1,11111222 
LUMCON,ioos:station:LUMCON:102:1,2010-02-06T19:00:00Z,29.1870,-90.6093,11.5,11111222 
LUMCON,ioos:station:LUMCON:102:1,2010-02-06T20:00:00Z,29.1870,-90.6093,12.1,11111222 
LUMCON,ioos:station:LUMCON:102:1,2010-02-06T21:00:00Z,29.1870,-90.6093,12.5,11111222 
LUMCON,ioos:station:LUMCON:102:1,2010-02-06T22:00:00Z,29.1870,-90.6093,12.7,11111222 
LUMCON,ioos:station:LUMCON:102:1,2010-02-06T23:00:00Z,29.1870,-90.6093,12.2,11111222 
LUMCON,ioos:station:LUMCON:102:1,2010-02-07T00:00:00Z,29.1870,-90.6093,10.8,11111222 
LUMCON,ioos:station:LUMCON:102:1,2010-02-07T01:00:00Z,29.1870,-90.6093,9.4,11111222 
LUMCON,ioos:station:LUMCON:102:1,2010-02-07T02:00:00Z,29.1870,-90.6093,8.4,11111222 
LUMCON,ioos:station:LUMCON:102:1,2010-02-07T03:00:00Z,29.1870,-90.6093,8.0,11111222 
LUMCON,ioos:station:LUMCON:102:1,2010-02-07T04:00:00Z,29.1870,-90.6093,7.4,11111222 
LUMCON,ioos:station:LUMCON:102:1,2010-02-07T06:00:00Z,29.1870,-90.6093,6.4,11111222 
LUMCON,ioos:station:LUMCON:102:1,2010-02-07T07:00:00Z,29.1870,-90.6093,6.1,11111222 
LUMCON,ioos:station:LUMCON:102:1,2010-02-07T08:00:00Z,29.1870,-90.6093,5.8,11111222 
LUMCON,ioos:station:LUMCON:102:1,2010-02-07T09:00:00Z,29.1870,-90.6093,5.5,11111222 
LUMCON,ioos:station:LUMCON:102:1,2010-02-07T10:00:00Z,29.1870,-90.6093,5.4,11111222 
LUMCON,ioos:station:LUMCON:102:1,2010-02-07T11:00:00Z,29.1870,-90.6093,5.3,11111222 
LUMCON,ioos:station:LUMCON:102:1,2010-02-07T12:00:00Z,29.1870,-90.6093,5.1,11111222 
LUMCON,ioos:station:LUMCON:102:1,2010-02-07T13:00:00Z,29.1870,-90.6093,5.2,11111222 
LUMCON,ioos:station:LUMCON:102:1,2010-02-07T14:00:00Z,29.1870,-90.6093,5.8,11111222 
LUMCON,ioos:station:LUMCON:102:1,2010-02-07T15:00:00Z,29.1870,-90.6093,6.1,11111222 
LUMCON,ioos:station:LUMCON:102:1,2010-02-07T16:00:00Z,29.1870,-90.6093,6.7,11111222 
LUMCON,ioos:station:LUMCON:102:1,2010-02-07T17:00:00Z,29.1870,-90.6093,7.2,11111222 
LUMCON,ioos:station:LUMCON:102:1,2010-02-07T18:00:00Z,29.1870,-90.6093,7.7,11111222 
LUMCON,ioos:station:LUMCON:102:1,2010-02-07T19:00:00Z,29.1870,-90.6093,8.3,11111222 
LUMCON,ioos:station:LUMCON:102:1,2010-02-07T20:00:00Z,29.1870,-90.6093,8.8,11111222 
LUMCON,ioos:station:LUMCON:102:1,2010-02-07T22:00:00Z,29.1870,-90.6093,9.0,11111222 
LUMCON,ioos:station:LUMCON:102:1,2010-02-07T23:00:00Z,29.1870,-90.6093,9.0,11111222 
LUMCON,ioos:station:LUMCON:102:1,2010-02-08T00:00:00Z,29.1870,-90.6093,8.9,11111222 
LUMCON,ioos:station:LUMCON:102:1,2010-02-08T01:00:00Z,29.1870,-90.6093,8.8,11111222 
LUMCON,ioos:station:LUMCON:102:1,2010-02-08T02:00:00Z,29.1870,-90.6093,9.0,11111222 
LUMCON,ioos:station:LUMCON:102:1,2010-02-08T03:00:00Z,29.1870,-90.6093,8.8,11111222 
LUMCON,ioos:station:LUMCON:102:1,2010-02-08T04:00:00Z,29.1870,-90.6093,9.0,11111222 
LUMCON,ioos:station:LUMCON:102:1,2010-02-08T05:00:00Z,29.1870,-90.6093,9.2,11111222 
LUMCON,ioos:station:LUMCON:102:1,2010-02-08T06:00:00Z,29.1870,-90.6093,9.3,11111222 
LUMCON,ioos:station:LUMCON:102:1,2010-02-08T07:00:00Z,29.1870,-90.6093,9.2,11111222 
LUMCON,ioos:station:LUMCON:102:1,2010-02-08T08:00:00Z,29.1870,-90.6093,9.2,11111222 
LUMCON,ioos:station:LUMCON:102:1,2010-02-08T09:00:00Z,29.1870,-90.6093,9.1,11111222 
LUMCON,ioos:station:LUMCON:102:1,2010-02-08T10:00:00Z,29.1870,-90.6093,9.1,11111222 
LUMCON,ioos:station:LUMCON:102:1,2010-02-08T11:00:00Z,29.1870,-90.6093,9.3,11111222 
LUMCON,ioos:station:LUMCON:102:1,2010-02-08T12:00:00Z,29.1870,-90.6093,9.7,11111222 
LUMCON,ioos:station:LUMCON:102:1,2010-02-08T13:00:00Z,29.1870,-90.6093,10.0,11111222 
LUMCON,ioos:station:LUMCON:102:1,2010-02-08T14:00:00Z,29.1870,-90.6093,11.3,11111222 
LUMCON,ioos:station:LUMCON:102:1,2010-02-08T22:00:00Z,29.1870,-90.6093,14.9,11111222 
LUMCON,ioos:station:LUMCON:102:1,2010-02-08T23:00:00Z,29.1870,-90.6093,14.7,11111222 
LUMCON,ioos:station:LUMCON:102:1,2010-02-09T00:00:00Z,29.1870,-90.6093,14.6,11111222 
LUMCON,ioos:station:LUMCON:102:1,2010-02-09T01:00:00Z,29.1870,-90.6093,14.7,11111222 
LUMCON,ioos:station:LUMCON:102:1,2010-02-09T02:00:00Z,29.1870,-90.6093,14.7,11111222 
LUMCON,ioos:station:LUMCON:102:1,2010-02-09T03:00:00Z,29.1870,-90.6093,14.8,11111222 
LUMCON,ioos:station:LUMCON:102:1,2010-02-09T04:00:00Z,29.1870,-90.6093,14.9,11111222 
LUMCON,ioos:station:LUMCON:102:1,2010-02-09T05:00:00Z,29.1870,-90.6093,15.4,11111222 
LUMCON,ioos:station:LUMCON:102:1,2010-02-09T06:00:00Z,29.1870,-90.6093,15.5,11111222 
LUMCON,ioos:station:LUMCON:102:1,2010-02-09T07:00:00Z,29.1870,-90.6093,15.3,11111222 
LUMCON,ioos:station:LUMCON:102:1,2010-02-09T08:00:00Z,29.1870,-90.6093,14.6,11111222 
LUMCON,ioos:station:LUMCON:102:1,2010-02-09T09:00:00Z,29.1870,-90.6093,14.5,11111222 
LUMCON,ioos:station:LUMCON:102:1,2010-02-09T10:00:00Z,29.1870,-90.6093,14.8,11111222 
LUMCON,ioos:station:LUMCON:102:1,2010-02-09T11:00:00Z,29.1870,-90.6093,13.5,11111222 
LUMCON,ioos:station:LUMCON:102:1,2010-02-09T12:00:00Z,29.1870,-90.6093,13.5,11111222 
LUMCON,ioos:station:LUMCON:102:1,2010-02-09T13:00:00Z,29.1870,-90.6093,9.8,11111222 
LUMCON,ioos:station:LUMCON:102:1,2010-02-09T14:00:00Z,29.1870,-90.6093,9.1,11111222 
LUMCON,ioos:station:LUMCON:102:1,2010-02-09T15:00:00Z,29.1870,-90.6093,9.0,11111222 
LUMCON,ioos:station:LUMCON:102:1,2010-02-09T16:00:00Z,29.1870,-90.6093,9.0,11111222 
LUMCON,ioos:station:LUMCON:102:1,2010-02-09T17:00:00Z,29.1870,-90.6093,8.8,11111222 
LUMCON,ioos:station:LUMCON:102:1,2010-02-09T18:00:00Z,29.1870,-90.6093,9.1,11111222 
LUMCON,ioos:station:LUMCON:102:1,2010-02-09T19:00:00Z,29.1870,-90.6093,8.9,11111222 
LUMCON,ioos:station:LUMCON:102:1,2010-02-09T20:00:00Z,29.1870,-90.6093,9.1,11111222 
LUMCON,ioos:station:LUMCON:102:1,2010-02-09T21:00:00Z,29.1870,-90.6093,9.4,11111222 
LUMCON,ioos:station:LUMCON:102:1,2010-02-09T22:00:00Z,29.1870,-90.6093,9.6,11111222 
LUMCON,ioos:station:LUMCON:102:1,2010-02-09T23:00:00Z,29.1870,-90.6093,9.6,11111222 
LUMCON,ioos:station:LUMCON:102:1,2010-02-10T00:00:00Z,29.1870,-90.6093,9.1,11111222 
LUMCON,ioos:station:LUMCON:102:1,2010-02-10T01:00:00Z,29.1870,-90.6093,8.9,11111222 
LUMCON,ioos:station:LUMCON:102:1,2010-02-10T02:00:00Z,29.1870,-90.6093,8.5,11111222 
LUMCON,ioos:station:LUMCON:102:1,2010-02-10T03:00:00Z,29.1870,-90.6093,8.1,11111222 
LUMCON,ioos:station:LUMCON:102:1,2010-02-10T17:00:00Z,29.1870,-90.6093,4.8,11111222 
LUMCON,ioos:station:LUMCON:102:1,2010-02-10T18:00:00Z,29.1870,-90.6093,6.0,11111222 
LUMCON,ioos:station:LUMCON:102:1,2010-02-10T19:00:00Z,29.1870,-90.6093,6.8,11111222 
LUMCON,ioos:station:LUMCON:102:1,2010-02-10T20:00:00Z,29.1870,-90.6093,7.8,11111222 
LUMCON,ioos:station:LUMCON:102:1,2010-02-10T21:00:00Z,29.1870,-90.6093,8.6,11111222 
LUMCON,ioos:station:LUMCON:102:1,2010-02-10T22:00:00Z,29.1870,-90.6093,9.0,11111222 
LUMCON,ioos:station:LUMCON:102:1,2010-02-10T23:00:00Z,29.1870,-90.6093,9.0,11111222 
LUMCON,ioos:station:LUMCON:102:1,2010-02-11T00:00:00Z,29.1870,-90.6093,8.5,11111222 
LUMCON,ioos:station:LUMCON:102:1,2010-02-11T01:00:00Z,29.1870,-90.6093,8.1,11111222 
LUMCON,ioos:station:LUMCON:102:1,2010-02-11T02:00:00Z,29.1870,-90.6093,7.7,11111222 
LUMCON,ioos:station:LUMCON:102:1,2010-02-11T03:00:00Z,29.1870,-90.6093,7.6,11111222 
LUMCON,ioos:station:LUMCON:102:1,2010-02-11T04:00:00Z,29.1870,-90.6093,7.5,11111222 
LUMCON,ioos:station:LUMCON:102:1,2010-02-11T05:00:00Z,29.1870,-90.6093,7.5,11111222 
LUMCON,ioos:station:LUMCON:102:1,2010-02-11T06:00:00Z,29.1870,-90.6093,7.4,11111222 
LUMCON,ioos:station:LUMCON:102:1,2010-02-11T07:00:00Z,29.1870,-90.6093,7.3,11111222 
LUMCON,ioos:station:LUMCON:102:1,2010-02-11T08:00:00Z,29.1870,-90.6093,7.1,11111222 
LUMCON,ioos:station:LUMCON:102:1,2010-02-11T09:00:00Z,29.1870,-90.6093,7.2,11111222 
LUMCON,ioos:station:LUMCON:102:1,2010-02-11T10:00:00Z,29.1870,-90.6093,7.1,11111222 
LUMCON,ioos:station:LUMCON:102:1,2010-02-11T11:00:00Z,29.1870,-90.6093,6.7,11111222 
LUMCON,ioos:station:LUMCON:102:1,2010-02-11T12:00:00Z,29.1870,-90.6093,6.3,11111222 
LUMCON,ioos:station:LUMCON:102:1,2010-02-11T13:00:00Z,29.1870,-90.6093,6.0,11111222 
LUMCON,ioos:station:LUMCON:102:1,2010-02-11T14:00:00Z,29.1870,-90.6093,6.0,11111222 
LUMCON,ioos:station:LUMCON:102:1,2010-02-11T15:00:00Z,29.1870,-90.6093,6.2,11111222 
LUMCON,ioos:station:LUMCON:102:1,2010-02-11T16:00:00Z,29.1870,-90.6093,6.4,11111222 
LUMCON,ioos:station:LUMCON:102:1,2010-02-11T17:00:00Z,29.1870,-90.6093,6.4,11111222 
LUMCON,ioos:station:LUMCON:102:1,2010-02-11T18:00:00Z,29.1870,-90.6093,6.4,11111222 
LUMCON,ioos:station:LUMCON:102:1,2010-02-11T19:00:00Z,29.1870,-90.6093,6.5,11111222 
LUMCON,ioos:station:LUMCON:102:1,2010-02-11T20:00:00Z,29.1870,-90.6093,6.5,11111222 
LUMCON,ioos:station:LUMCON:102:1,2010-02-11T21:00:00Z,29.1870,-90.6093,6.2,11111222 
LUMCON,ioos:station:LUMCON:102:1,2010-02-11T22:00:00Z,29.1870,-90.6093,6.0,11111222 
LUMCON,ioos:station:LUMCON:102:1,2010-02-12T15:00:00Z,29.1870,-90.6093,4.1,11111222 
LUMCON,ioos:station:LUMCON:102:1,2010-02-12T16:00:00Z,29.1870,-90.6093,4.5,11111222 
LUMCON,ioos:station:LUMCON:102:1,2010-02-12T17:00:00Z,29.1870,-90.6093,4.3,11111222 
LUMCON,ioos:station:LUMCON:102:1,2010-02-12T18:00:00Z,29.1870,-90.6093,4.6,11111222 
LUMCON,ioos:station:LUMCON:102:1,2010-02-12T19:00:00Z,29.1870,-90.6093,4.2,11111222 
LUMCON,ioos:station:LUMCON:102:1,2010-02-12T20:00:00Z,29.1870,-90.6093,4.2,11111222 
LUMCON,ioos:station:LUMCON:102:1,2010-02-12T21:00:00Z,29.1870,-90.6093,4.5,11111222 
LUMCON,ioos:station:LUMCON:102:1,2010-02-12T22:00:00Z,29.1870,-90.6093,4.7,11111222 
LUMCON,ioos:station:LUMCON:102:1,2010-02-12T23:00:00Z,29.1870,-90.6093,4.9,11111222 
LUMCON,ioos:station:LUMCON:102:1,2010-02-13T00:00:00Z,29.1870,-90.6093,4.5,11111222 
LUMCON,ioos:station:LUMCON:102:1,2010-02-13T01:00:00Z,29.1870,-90.6093,4.5,11111222 
LUMCON,ioos:station:LUMCON:102:1,2010-02-13T02:00:00Z,29.1870,-90.6093,4.4,11111222 
LUMCON,ioos:station:LUMCON:102:1,2010-02-13T03:00:00Z,29.1870,-90.6093,3.8,11111222 
LUMCON,ioos:station:LUMCON:102:1,2010-02-13T04:00:00Z,29.1870,-90.6093,3.8,11111222 
LUMCON,ioos:station:LUMCON:102:1,2010-02-13T05:00:00Z,29.1870,-90.6093,3.6,11111222 
LUMCON,ioos:station:LUMCON:102:1,2010-02-13T06:00:00Z,29.1870,-90.6093,3.0,11111222 
LUMCON,ioos:station:LUMCON:102:1,2010-02-13T07:00:00Z,29.1870,-90.6093,2.6,11111222 
LUMCON,ioos:station:LUMCON:102:1,2010-02-13T08:00:00Z,29.1870,-90.6093,2.2,11111222 
LUMCON,ioos:station:LUMCON:102:1,2010-02-13T09:00:00Z,29.1870,-90.6093,2.0,11111222 
LUMCON,ioos:station:LUMCON:102:1,2010-02-13T10:00:00Z,29.1870,-90.6093,1.9,11111222 
LUMCON,ioos:station:LUMCON:102:1,2010-02-13T11:00:00Z,29.1870,-90.6093,1.8,11111222 
LUMCON,ioos:station:LUMCON:102:1,2010-02-13T12:00:00Z,29.1870,-90.6093,1.7,11111222 
LUMCON,ioos:station:LUMCON:102:1,2010-02-13T13:00:00Z,29.1870,-90.6093,1.9,11111222 
LUMCON,ioos:station:LUMCON:102:1,2010-02-13T14:00:00Z,29.1870,-90.6093,2.7,11111222 
LUMCON,ioos:station:LUMCON:102:1,2010-02-13T15:00:00Z,29.1870,-90.6093,3.4,11111222 
LUMCON,ioos:station:LUMCON:102:1,2010-02-13T16:00:00Z,29.1870,-90.6093,4.5,11111222 
LUMCON,ioos:station:LUMCON:102:1,2010-02-13T17:00:00Z,29.1870,-90.6093,5.6,11111222 
LUMCON,ioos:station:LUMCON:102:1,2010-02-13T18:00:00Z,29.1870,-90.6093,6.5,11111222 
LUMCON,ioos:station:LUMCON:102:1,2010-02-13T19:00:00Z,29.1870,-90.6093,6.4,11111222 
LUMCON,ioos:station:LUMCON:102:1,2010-02-13T20:00:00Z,29.1870,-90.6093,7.0,11111222 
LUMCON,ioos:station:LUMCON:102:1,2010-02-13T21:00:00Z,29.1870,-90.6093,7.4,11111222 
LUMCON,ioos:station:LUMCON:102:1,2010-02-13T22:00:00Z,29.1870,-90.6093,7.7,11111222 
LUMCON,ioos:station:LUMCON:102:1,2010-02-13T23:00:00Z,29.1870,-90.6093,8.0,11111222 
LUMCON,ioos:station:LUMCON:102:1,2010-02-14T00:00:00Z,29.1870,-90.6093,7.3,11111222 
LUMCON,ioos:station:LUMCON:102:1,2010-02-14T01:00:00Z,29.1870,-90.6093,6.7,11111222 
LUMCON,ioos:station:LUMCON:102:1,2010-02-14T02:00:00Z,29.1870,-90.6093,6.3,11111222 
LUMCON,ioos:station:LUMCON:102:1,2010-02-14T03:00:00Z,29.1870,-90.6093,6.0,11111222 
LUMCON,ioos:station:LUMCON:102:1,2010-02-14T04:00:00Z,29.1870,-90.6093,5.7,11111222 
LUMCON,ioos:station:LUMCON:102:1,2010-02-14T05:00:00Z,29.1870,-90.6093,5.7,11111222 
LUMCON,ioos:station:LUMCON:102:1,2010-02-14T06:00:00Z,29.1870,-90.6093,5.8,11111222 
LUMCON,ioos:station:LUMCON:102:1,2010-02-14T07:00:00Z,29.1870,-90.6093,5.5,11111222 
LUMCON,ioos:station:LUMCON:102:1,2010-02-14T08:00:00Z,29.1870,-90.6093,5.7,11111222 
LUMCON,ioos:station:LUMCON:102:1,2010-02-14T09:00:00Z,29.1870,-90.6093,5.8,11111222 
LUMCON,ioos:station:LUMCON:102:1,2010-02-14T10:00:00Z,29.1870,-90.6093,6.3,11111222 
LUMCON,ioos:station:LUMCON:102:1,2010-02-14T11:00:00Z,29.1870,-90.6093,6.8,11111222 
LUMCON,ioos:station:LUMCON:102:1,2010-02-14T12:00:00Z,29.1870,-90.6093,6.6,11111222 
LUMCON,ioos:station:LUMCON:102:1,2010-02-14T14:00:00Z,29.1870,-90.6093,8.6,11111222 
LUMCON,ioos:station:LUMCON:102:1,2010-02-14T15:00:00Z,29.1870,-90.6093,9.6,11111222 
LUMCON,ioos:station:LUMCON:102:1,2010-02-14T16:00:00Z,29.1870,-90.6093,10.5,11111222 
LUMCON,ioos:station:LUMCON:102:1,2010-02-14T17:00:00Z,29.1870,-90.6093,11.2,11111222 
LUMCON,ioos:station:LUMCON:102:1,2010-02-14T18:00:00Z,29.1870,-90.6093,11.9,11111222 
LUMCON,ioos:station:LUMCON:102:1,2010-02-14T19:00:00Z,29.1870,-90.6093,12.3,11111222 
LUMCON,ioos:station:LUMCON:102:1,2010-02-14T20:00:00Z,29.1870,-90.6093,12.4,11111222 
LUMCON,ioos:station:LUMCON:102:1,2010-02-14T21:00:00Z,29.1870,-90.6093,12.2,11111222 
LUMCON,ioos:station:LUMCON:102:1,2010-02-14T22:00:00Z,29.1870,-90.6093,12.5,11111222 